sat.trackr.live / text

‹ back to catalog

STARLINK-33818

NORAD 63502 · 2025-071K

PAYLOAD ACTIVE UNKNOWN

§ Identity

Operator
Country
US
Launch date
2025-04-07
Launch site
AFWTR
Launch vehicle
Mass (kg)
RCS (m²)

Purposes: comms

External: N2YO · Heavens-Above · Gunter

§ Orbital elements

Epoch: 2026-09-20T20:50:14.562240Z

Period
93.85 min
Inclination
53.1597°
Eccentricity
0.0000574
Mean motion
15.34397903 rev/d
Perigee alt
462.3 km
Apogee alt
463.1 km
Semi-major
6,840.8 km
B*
3.0235e-4
RAAN
311.8504°
Arg perigee
39.1624°
Mean anomaly
320.9421°
Rev number
8,267

§ Raw data

STARLINK-338181 63502U 25071K   26263.86822410  .00009852  00000+0  30235-3 0  99902 63502  53.1597 311.8504 0000574  39.1624 320.9421 15.34397903 82679

JSON: /api/v1/satellites/63502 · /tle

For live sub-satellite position, see the globe view (requires WebGL).

§ Visibility from observer

Set your observer location to see the next 7 days of passes ≥ 10°. The values pass through the URL so the page stays shareable.

No JS? Fill the form by hand. The geolocation button needs JavaScript.